Weather History for 03772 - March, 2013

Change the Weather History Date:

Thursday, March 7, 2013

  Actual Average Record
Temperature  
Mean Temperature 47 °F -  
Max Temperature 50 °F 51 °F - ()
Min Temperature 44 °F 39 °F - ()
Degree Days  
Heating Degree Days 18    
Moisture  
Dew Point 46 °F    
Average Humidity 92    
Maximum Humidity 100    
Minimum Humidity 86    
Precipitation  
Precipitation 0.12 in - - ()
Sea Level Pressure  
Sea Level Pressure 29.43 in    
Wind  
Wind Speed 5 mph ()    
Max Wind Speed 10 mph    
Max Gust Speed -    
Visibility 1.5 miles    
Events Rain    
T = Trace of Precipitation, MM = Missing Value Source: Averaged Metar Reports

Daily Weather History Graph

Daily Weather History Graph

Search for Another Location

Airport or City:

Trip Planner

Search our weather history database for the weather conditions in past years. The results will help you decide how hot, cold, wet, or windy it might be!

Date:

Astronomy

Mar. 07, 2013 Rise Set
Actual Time 6:33 AM GMT 5:52 PM GMT
Civil Twilight 6:00 AM GMT 6:26 PM GMT
Nautical Twilight 5:21 AM GMT 7:04 PM GMT
Astronomical Twilight 4:42 AM GMT 7:44 PM GMT
Moon 3:48 AM GMT (3/7) 12:58 PM GMT (3/7)
Length of Visible Light 12h 25m
Length of Day
11h 19m
Waning Crescent, 22% of the Moon is Illuminated
Mar 7
Waning Crescent
Mar 11
New
Mar 19
First Quarter
Mar 27
Full
Apr 3
Last Quarter

Hourly Weather History & Observations

Time (GMT) Temp. Windchill Dew Point Humidity Pressure Visibility Wind Dir Wind Speed Gust Speed Precip Events Conditions
12:20 AM 46.4 °F 44.3 °F 42.8 °F 87% 29.50 in - ENE 4.6 mph - N/A Rain Light Rain
12:50 AM 46.4 °F 44.3 °F 42.8 °F 87% 29.50 in - NE 4.6 mph - N/A Rain Light Rain
1:20 AM 46.4 °F 44.3 °F 42.8 °F 87% 29.50 in - ENE 4.6 mph - N/A Rain Light Rain
1:50 AM 46.4 °F 44.3 °F 42.8 °F 87% 29.50 in - NE 4.6 mph - N/A Rain Light Rain
2:20 AM 46.4 °F 43.5 °F 42.8 °F 87% 29.50 in 1.9 mi NE 5.8 mph - N/A Rain Light Rain
2:50 AM 46 °F - 44 °F 91% 29.50 in 1 mi NE 5.8 mph - - Rain Light Rain
2:50 AM 46.4 °F 43.5 °F 42.8 °F 87% 29.47 in 1.8 mi ENE 5.8 mph - N/A Rain Light Rain
3:20 AM 44.6 °F 42.2 °F 42.8 °F 93% 29.47 in 1.4 mi East 4.6 mph - N/A Rain Light Rain
3:50 AM 44.6 °F 42.2 °F 44.6 °F 100% 29.47 in 1.3 mi ENE 4.6 mph - N/A Rain Light Rain
4:20 AM 46.4 °F 45.2 °F 44.6 °F 93% 29.47 in 1.3 mi Variable 3.5 mph - N/A Rain Light Rain
4:50 AM 44.6 °F 42.2 °F 44.6 °F 100% 29.47 in 1.3 mi NNE 4.6 mph - N/A Rain Light Rain
5:20 AM 46.4 °F 43.5 °F 44.6 °F 93% 29.44 in 1.6 mi ENE 5.8 mph - N/A Rain Light Rain
5:50 AM 46 °F - 45 °F 96% 29.47 in 1 mi ENE 4.6 mph - - Rain Light Rain
5:50 AM 46.4 °F 42.9 °F 44.6 °F 93% 29.44 in 1.2 mi ENE 6.9 mph - N/A Rain Light Rain
6:20 AM 46.4 °F 45.2 °F 44.6 °F 93% 29.47 in 1.2 mi ENE 3.5 mph - N/A Rain Light Rain
6:50 AM 46.4 °F 44.3 °F 44.6 °F 93% 29.47 in 1.2 mi East 4.6 mph - N/A Rain Light Rain
7:20 AM 46.4 °F 43.5 °F 44.6 °F 93% 29.47 in 1.1 mi East 5.8 mph - N/A Rain Light Rain
7:50 AM 46.4 °F 43.5 °F 44.6 °F 93% 29.47 in 1.2 mi East 5.8 mph - N/A Rain Light Rain
8:20 AM 46.4 °F 44.3 °F 44.6 °F 93% 29.47 in 1.1 mi East 4.6 mph - N/A Rain Light Rain
8:50 AM 47 °F - 46 °F 96% 29.47 in 1 mi ENE 4.6 mph - - Rain Light Rain
8:50 AM 46.4 °F 45.2 °F 44.6 °F 93% 29.47 in 1.3 mi ENE 3.5 mph - N/A Rain Light Rain
9:20 AM 48.2 °F - 46.4 °F 93% 29.44 in 1.3 mi ENE 5.8 mph - N/A Rain Light Rain
9:50 AM 48.2 °F - 46.4 °F 93% 29.44 in 1.7 mi ENE 4.6 mph - N/A Rain Light Rain
10:20 AM 48.2 °F - 46.4 °F 93% 29.44 in - ENE 8.1 mph - N/A Rain Light Rain
10:50 AM 48.2 °F - 46.4 °F 93% 29.44 in - ENE 6.9 mph - N/A Rain Light Rain
11:20 AM 48.2 °F - 46.4 °F 93% 29.44 in - ENE 6.9 mph - N/A Rain Light Rain
11:50 AM 49 °F - 46 °F 86% 29.43 in 2 mi East 5.8 mph - - Rain Light Rain
11:50 AM 48.2 °F - 44.6 °F 87% 29.42 in 3.1 mi East 6.9 mph - N/A Rain Light Rain
12:20 PM 48.2 °F - 46.4 °F 93% 29.42 in 3.1 mi ENE 6.9 mph - N/A Rain Light Rain
12:50 PM 50.0 °F - 46.4 °F 87% 29.42 in 3.1 mi East 8.1 mph - N/A Rain Light Rain
1:20 PM 50.0 °F - 46.4 °F 87% 29.42 in 2.8 mi East 8.1 mph - N/A Rain Light Rain
1:50 PM 50.0 °F - 46.4 °F 87% 29.39 in - East 8.1 mph - N/A Rain Light Rain
2:20 PM 50.0 °F - 46.4 °F 87% 29.39 in 2.2 mi East 6.9 mph - N/A Rain Light Rain
2:50 PM 50 °F - 48 °F 89% 29.39 in 2 mi East 8.1 mph - - Rain Light Drizzle
2:50 PM 50.0 °F - 46.4 °F 87% 29.39 in - East 9.2 mph - N/A Rain Light Rain
3:20 PM 50.0 °F - 46.4 °F 87% 29.39 in - East 9.2 mph - N/A   Mostly Cloudy
3:50 PM 48.2 °F - 46.4 °F 93% 29.39 in 1.9 mi East 10.4 mph - N/A   Mostly Cloudy
4:20 PM 48.2 °F - 46.4 °F 93% 29.39 in 1.1 mi East 10.4 mph - N/A   Mostly Cloudy
4:50 PM 48.2 °F - 46.4 °F 93% 29.39 in 0.9 mi East 10.4 mph - N/A   Mostly Cloudy
5:20 PM 48.2 °F - 46.4 °F 93% 29.39 in 0.9 mi East 9.2 mph - N/A   Mostly Cloudy
5:50 PM 48 °F - 47 °F 94% 29.39 in 1 mi East 9.2 mph - - Rain Drizzle
5:50 PM 48.2 °F - 46.4 °F 93% 29.39 in 1.0 mi East 8.1 mph - N/A   Mostly Cloudy
6:20 PM 48.2 °F - 46.4 °F 93% 29.39 in 1.1 mi East 8.1 mph - N/A   Mostly Cloudy
6:50 PM 48.2 °F - 46.4 °F 93% 29.39 in 1.0 mi East 6.9 mph - N/A   Mostly Cloudy
7:20 PM 48.2 °F - 46.4 °F 93% 29.39 in 0.9 mi East 6.9 mph - N/A   Mostly Cloudy
7:50 PM 48.2 °F - 46.4 °F 93% 29.39 in 0.9 mi East 6.9 mph - N/A   Mostly Cloudy
8:20 PM 48.2 °F - 46.4 °F 93% 29.39 in 1.1 mi East 6.9 mph - N/A   Mostly Cloudy
8:50 PM 49 °F - 48 °F 94% 29.40 in 2 mi East 6.9 mph - -   Mist
8:50 PM 48.2 °F - 48.2 °F 100% 29.39 in 1.4 mi East 6.9 mph - N/A   Mostly Cloudy
9:20 PM 48.2 °F - 48.2 °F 100% 29.39 in 1.3 mi East 4.6 mph - N/A   Mostly Cloudy
9:50 PM 50.0 °F - 48.2 °F 94% 29.42 in 1.4 mi East 6.9 mph - N/A   Mostly Cloudy
10:20 PM 50.0 °F - 48.2 °F 94% 29.42 in 1.4 mi East 5.8 mph - N/A   Haze
10:50 PM 48.2 °F - 48.2 °F 100% 29.39 in 1.4 mi East 6.9 mph - N/A   Haze
11:20 PM 48.2 °F - 48.2 °F 100% 29.39 in 1.1 mi East 6.9 mph - N/A Rain Light Rain
11:50 PM 49 °F - 48 °F 95% 29.39 in 1 mi East 5.8 mph - - Rain Light Drizzle
11:50 PM 48.2 °F - 48.2 °F 100% 29.39 in 1.0 mi East 6.9 mph - N/A   Mostly Cloudy